Location: Feydey
(46.3431°N, 7.0106°E)
Time: 21:58:47
(UTC+00:00)

CARTOSAT-1 - Pass Details

Date: 20 June 2021
Orbit: 616 x 618 km, 97.8° (Epoch: 22 July)

Event Time Altitude Azimuth Distance (km) Brightness Sun altitude
Exits shadow 20:40:13 12° 158° (SSE) 1,837 5.4 -9.9°
Maximum altitude 20:44:09 72° 74° (ENE) 654 3.6 -10.4°
Drops below altitude 10° 20:48:29 10° 351° (N) 1,995 7.2 -10.8°
Sets 20:50:41 0° 349° (N) 2,905 8.2 -11.1°
